MOLNIYA 1-56

Last updated on Jan. 25, 2021, 10:42 a.m. UTC

1 13890U 83019A   21024.44751642  .00000426  00000-0  00000-0 0  9996
2 13890  63.1705  95.7681 7260484 260.8881  24.5228  1.99952212276429
UTC
Height (km)
Latitude
Longitude
Inclination
Orbital Period
UTC large
Height (km)
Speed (km/s)
/
Latitude / Longitude
Inclination (degrees)
Orbital Period (minutes)
Azimuth
Elevation
Range (km)
Doppler Factor
iOS Compass Heading
iOS Angle

Next 30 passes for location: Hong Kong

Rise time Rise Azimuth (degrees) Set time Set Azimuth (degrees) Duration Max altitude (degrees)

No matching passes for this satellites